Weather History for EGPF - April, 2012

Change the Weather History Date:

Sunday, April 22, 2012

  Actual Average Record
Temperature  
Mean Temperature 48 °F -  
Max Temperature 55 °F 56 °F 68 °F (2015)
Min Temperature 41 °F 41 °F 32 °F (2009)
Degree Days  
Heating Degree Days 17    
Moisture  
Dew Point 39 °F    
Average Humidity 76    
Maximum Humidity 100    
Minimum Humidity 51    
Precipitation  
Precipitation 0.00 in - - ()
Sea Level Pressure  
Sea Level Pressure 29.52 in    
Wind  
Wind Speed 3 mph ()    
Max Wind Speed 12 mph    
Max Gust Speed -    
Visibility 6.2 miles    
Events Rain    
Averages and records for this station are not official NWS values.
T = Trace of Precipitation, MM = Missing Value Source: Averaged Metar Reports

Daily Weather History Graph

Daily Weather History Graph

Search for Another Location

Airport or City:

Trip Planner

Search our weather history database for the weather conditions in past years. The results will help you decide how hot, cold, wet, or windy it might be!

Date:

Astronomy

Apr. 22, 2012 Rise Set
Actual Time 5:54 AM BST 8:39 PM BST
Civil Twilight 5:12 AM BST 9:21 PM BST
Nautical Twilight 4:18 AM BST 10:16 PM BST
Astronomical Twilight 3:07 AM BST 11:29 PM BST
Moon 6:01 AM BST (4/22) 10:24 PM BST (4/22)
Length of Visible Light 16h 08m
Length of Day
14h 44m
New Moon, 1% of the Moon is Illuminated
Apr 22
New Moon
Apr 29
First Quarter
May 6
Full
May 12
Last Quarter
May 21
New

Hourly Weather History & Observations

Time (BST) Temp. Windchill Dew Point Humidity Pressure Visibility Wind Dir Wind Speed Gust Speed Precip Events Conditions
12:20 AM 44.6 °F - 41.0 °F 87% 29.47 in 6.2 mi Calm Calm - N/A Rain Light Rain
12:50 AM 42.8 °F - 41.0 °F 93% 29.47 in 6.2 mi Calm Calm - N/A   Scattered Clouds
1:20 AM 41.0 °F 39.0 °F 41.0 °F 100% 29.47 in 6.2 mi NW 3.5 mph - N/A   Mostly Cloudy
1:50 AM 42.8 °F - 41.0 °F 93% 29.50 in 6.2 mi West 2.3 mph - N/A   Mostly Cloudy
2:20 AM 42.8 °F - 41.0 °F 93% 29.50 in 6.2 mi Calm Calm - N/A   Mostly Cloudy
2:50 AM 42.8 °F - 41.0 °F 93% 29.50 in 6.2 mi Variable 2.3 mph - N/A   Overcast
3:20 AM 42.8 °F - 41.0 °F 93% 29.50 in 6.2 mi NNE 2.3 mph - N/A   Mostly Cloudy
3:50 AM 42.8 °F - 41.0 °F 93% 29.50 in 6.2 mi Calm Calm - N/A   Mostly Cloudy
4:20 AM 42.8 °F 41.1 °F 41.0 °F 93% 29.50 in 6.2 mi ENE 3.5 mph - N/A Rain Light Rain
4:50 AM 42.8 °F 40.1 °F 41.0 °F 93% 29.50 in 6.2 mi NE 4.6 mph - N/A   Mostly Cloudy
5:20 AM 42.8 °F - 41.0 °F 93% 29.50 in 6.2 mi Calm Calm - N/A   Mostly Cloudy
5:50 AM 42.8 °F - 41.0 °F 93% 29.50 in 6.2 mi Variable 2.3 mph - N/A   Mostly Cloudy
6:20 AM 42.8 °F - 41.0 °F 93% 29.50 in 6.2 mi Calm Calm - N/A   Mostly Cloudy
6:50 AM 42.8 °F - 42.8 °F 100% 29.50 in 6.2 mi Calm Calm - N/A   Mostly Cloudy
7:20 AM 42.8 °F 41.1 °F 42.8 °F 100% 29.53 in 6.2 mi ENE 3.5 mph - N/A   Mostly Cloudy
8:20 AM 44.6 °F 43.1 °F 41.0 °F 87% 29.53 in 6.2 mi ENE 3.5 mph - N/A   Scattered Clouds
8:50 AM 46.4 °F 45.2 °F 41.0 °F 81% 29.53 in 6.2 mi Variable 3.5 mph - N/A   Scattered Clouds
9:20 AM 48.2 °F - 41.0 °F 76% 29.53 in 6.2 mi Variable 3.5 mph - N/A   Partly Cloudy
9:50 AM 48.2 °F - 39.2 °F 71% 29.53 in 6.2 mi Variable 4.6 mph - N/A   Mostly Cloudy
10:20 AM 48.2 °F - 39.2 °F 71% 29.56 in 6.2 mi East 5.8 mph - N/A   Mostly Cloudy
10:50 AM 48.2 °F - 37.4 °F 66% 29.56 in 6.2 mi ENE 6.9 mph - N/A   Mostly Cloudy
11:20 AM 48.2 °F - 39.2 °F 71% 29.56 in 6.2 mi East 6.9 mph - N/A   Mostly Cloudy
11:50 AM 50.0 °F - 37.4 °F 62% 29.56 in 6.2 mi East 5.8 mph - N/A   Mostly Cloudy
12:20 PM 50.0 °F - 37.4 °F 62% 29.56 in 6.2 mi Variable 2.3 mph - N/A   Mostly Cloudy
12:50 PM 51.8 °F - 37.4 °F 58% 29.56 in 6.2 mi ENE 4.6 mph - N/A   Scattered Clouds
1:20 PM 53.6 °F - 37.4 °F 54% 29.53 in 6.2 mi Variable 4.6 mph - N/A   Scattered Clouds
1:50 PM 51.8 °F - 37.4 °F 58% 29.53 in 6.2 mi East 5.8 mph - N/A   Partly Cloudy
2:20 PM 51.8 °F - 37.4 °F 58% 29.53 in 6.2 mi East 4.6 mph - N/A   Mostly Cloudy
2:50 PM 51.8 °F - 37.4 °F 58% 29.53 in 6.2 mi Calm Calm - N/A   Mostly Cloudy
3:20 PM 53.6 °F - 37.4 °F 54% 29.53 in 6.2 mi West 3.5 mph - N/A   Scattered Clouds
3:50 PM 53.6 °F - 37.4 °F 54% 29.53 in 6.2 mi Variable 2.3 mph - N/A   Mostly Cloudy
4:20 PM 53.6 °F - 37.4 °F 54% 29.53 in 6.2 mi Variable 3.5 mph - N/A   Scattered Clouds
4:50 PM 55.4 °F - 37.4 °F 51% 29.53 in 6.2 mi NE 5.8 mph - N/A   Mostly Cloudy
5:20 PM 51.8 °F - 39.2 °F 62% 29.50 in 6.2 mi ENE 8.1 mph - N/A   Scattered Clouds
5:50 PM 53.6 °F - 39.2 °F 58% 29.50 in 6.2 mi ENE 9.2 mph - N/A   Scattered Clouds
6:20 PM 51.8 °F - 39.2 °F 62% 29.50 in - East 9.2 mph - N/A   Clear
6:50 PM 50.0 °F - 39.2 °F 66% 29.50 in 6.2 mi ENE 10.4 mph - N/A   Partly Cloudy
7:20 PM 50.0 °F - 39.2 °F 66% 29.53 in 6.2 mi East 10.4 mph - N/A   Partly Cloudy
7:50 PM 48.2 °F - 39.2 °F 71% 29.53 in - East 11.5 mph - N/A   Clear
8:20 PM 48.2 °F - 37.4 °F 66% 29.53 in - East 10.4 mph - N/A   Clear
8:50 PM 46.4 °F 41.5 °F 37.4 °F 71% 29.53 in - East 10.4 mph - N/A   Clear
9:20 PM 46.4 °F 41.9 °F 39.2 °F 76% 29.53 in - ENE 9.2 mph - N/A   Clear
9:50 PM 46.4 °F 41.1 °F 39.2 °F 76% 29.53 in - East 11.5 mph - N/A   Clear
10:20 PM 44.6 °F 40.2 °F 37.4 °F 76% 29.53 in 6.2 mi East 8.1 mph - N/A   Scattered Clouds
10:50 PM 42.8 °F 38.0 °F 37.4 °F 81% 29.53 in 6.2 mi ENE 8.1 mph - N/A   Scattered Clouds
11:20 PM 42.8 °F 38.0 °F 37.4 °F 81% 29.53 in 6.2 mi NE 8.1 mph - N/A   Mostly Cloudy
11:50 PM 42.8 °F 38.0 °F 39.2 °F 87% 29.53 in 6.2 mi NE 8.1 mph - N/A   Mostly Cloudy